| time (UTC) | temp C | wind direction | speed KPH | gust KPH | rain 1hr cm | rain 24hr cm | rain mn cm | humidity % | barometer mb |
| 20260906165111 | 37 | 288 | 1.6 | 1.6 | 0.00 | 0.00 | 0.00 | 39 | 1017.0 |
| 20260906164609 | 37 | 18 | 1.6 | 3.2 | 0.00 | 0.00 | 0.00 | 39 | 1017.3 |
| 20260906164105 | 37 | 332 | 4.8 | 4.8 | 0.00 | 0.00 | 0.00 | 39 | 1017.3 |
| 20260906163601 | 36 | 330 | 1.6 | 3.2 | 0.00 | 0.00 | 0.00 | 40 | 1017.3 |
| 20260906163056 | 36 | 72 | 6.4 | 9.7 | 0.00 | 0.00 | 0.00 | 40 | 1017.3 |
| 20260906162554 | 36 | 314 | 1.6 | 3.2 | 0.00 | 0.00 | 0.00 | 40 | 1017.0 |
| 20260906162048 | 36 | 326 | 3.2 | 3.2 | 0.00 | 0.00 | 0.00 | 41 | 1017.3 |
| 20260906161543 | 36 | 121 | 3.2 | 3.2 | 0.00 | 0.00 | 0.00 | 40 | 1017.0 |
| 20260906161042 | 36 | 313 | 3.2 | 3.2 | 0.00 | 0.00 | 0.00 | 42 | 1017.0 |
| 20260906160541 | 36 | 349 | 4.8 | 3.2 | 0.00 | 0.00 | 0.00 | 41 | 1017.3 |
| 20260906160040 | 36 | 339 | 1.6 | 1.6 | 0.00 | 0.00 | 0.00 | 44 | 1017.3 |
| 20260906155538 | 36 | 322 | 1.6 | 3.2 | 0.00 | 0.00 | 0.00 | 43 | 1017.0 |
| 20260906155034 | 36 | 5 | 3.2 | 3.2 | 0.00 | 0.00 | 0.00 | 44 | 1017.0 |
| 20260906154529 | 36 | 68 | 1.6 | 3.2 | 0.00 | 0.00 | 0.00 | 43 | 1017.0 |
| 20260906154028 | 35 | 311 | 0.0 | 1.6 | 0.00 | 0.00 | 0.00 | 45 | 1017.3 |
| 20260906153527 | 35 | 335 | 3.2 | 3.2 | 0.00 | 0.00 | 0.00 | 46 | 1017.3 |
| 20260906153023 | 35 | 348 | 3.2 | 3.2 | 0.00 | 0.00 | 0.00 | 46 | 1017.3 |
| 20260906152516 | 35 | 303 | 1.6 | 1.6 | 0.00 | 0.00 | 0.00 | 47 | 1017.0 |
| 20260906152015 | 35 | 294 | 1.6 | 1.6 | 0.00 | 0.00 | 0.00 | 47 | 1017.0 |
| 20260906151511 | 33 | 320 | 0.0 | 0.0 | 0.00 | 0.00 | 0.00 | 50 | 1017.0 |
| 20260906151007 | 33 | 144 | 4.8 | 4.8 | 0.00 | 0.00 | 0.00 | 51 | 1017.0 |
| 20260906150502 | 32 | 267 | 0.0 | 0.0 | 0.00 | 0.00 | 0.00 | 53 | 1017.0 |
| 20260906145956 | 32 | 266 | 1.6 | 3.2 | 0.00 | 0.00 | 0.00 | 55 | 1017.0 |
| 20260906145455 | 32 | 279 | 1.6 | 1.6 | 0.00 | 0.00 | 0.00 | 56 | 1017.0 |
| 20260906144955 | 32 | 353 | 0.0 | 0.0 | 0.00 | 0.00 | 0.00 | 56 | 1017.0 |
| 20260906144450 | 31 | 273 | 3.2 | 1.6 | 0.00 | 0.00 | 0.00 | 58 | 1017.0 |
| 20260906143945 | 31 | 272 | 3.2 | 3.2 | 0.00 | 0.00 | 0.00 | 58 | 1016.6 |
| 20260906143441 | 31 | 1 | 1.6 | 1.6 | 0.00 | 0.00 | 0.00 | 59 | 1017.0 |
| 20260906142936 | 30 | 1 | 1.6 | 1.6 | 0.00 | 0.00 | 0.00 | 61 | 1017.0 |
| 20260906142431 | 30 | 19 | 1.6 | 1.6 | 0.00 | 0.00 | 0.00 | 61 | 1017.0 |
| 20260906141926 | 30 | 16 | 0.0 | 0.0 | 0.00 | 0.00 | 0.00 | 62 | 1017.0 |
| 20260906141425 | 30 | 16 | 1.6 | 3.2 | 0.00 | 0.00 | 0.00 | 62 | 1017.0 |
| 20260906140920 | 29 | 16 | 0.0 | 0.0 | 0.00 | 0.00 | 0.00 | 64 | 1017.0 |
| 20260906140415 | 28 | 15 | 1.6 | 1.6 | 0.00 | 0.00 | 0.00 | 66 | 1017.0 |
| 20260906135913 | 27 | 16 | 1.6 | 1.6 | 0.00 | 0.00 | 0.00 | 68 | 1017.0 |
| 20260906135412 | 27 | 16 | 1.6 | 1.6 | 0.00 | 0.00 | 0.00 | 70 | 1017.0 |
| 20260906134908 | 27 | 15 | 0.0 | 0.0 | 0.00 | 0.00 | 0.00 | 70 | 1017.0 |
| 20260906134403 | 26 | 15 | 1.6 | 1.6 | 0.00 | 0.00 | 0.00 | 72 | 1016.6 |
| 20260906133858 | 26 | 16 | 0.0 | 0.0 | 0.00 | 0.00 | 0.00 | 74 | 1016.6 |
| 20260906133353 | 26 | 16 | 1.6 | 1.6 | 0.00 | 0.00 | 0.00 | 75 | 1017.0 |
| 20260906132849 | 25 | 16 | 1.6 | 1.6 | 0.00 | 0.00 | 0.00 | 77 | 1017.0 |
| 20260906132344 | 25 | 0 | 1.6 | 1.6 | 0.00 | 0.00 | 0.00 | 77 | 1017.0 |
| 20260906131839 | 24 | 337 | 1.6 | 1.6 | 0.00 | 0.00 | 0.00 | 80 | 1017.0 |
| 20260906131334 | 24 | 276 | 0.0 | 1.6 | 0.00 | 0.00 | 0.00 | 80 | 1017.0 |
| 20260906130831 | 23 | 275 | 0.0 | 0.0 | 0.00 | 0.00 | 0.00 | 81 | 1017.0 |
| 20260906130330 | 23 | 275 | 0.0 | 0.0 | 0.00 | 0.00 | 0.00 | 81 | 1017.0 |
| 20260906125829 | 23 | 275 | 0.0 | 0.0 | 0.00 | 0.00 | 0.00 | 82 | 1017.0 |
| 20260906125326 | 23 | 276 | 0.0 | 0.0 | 0.00 | 0.00 | 0.00 | 83 | 1016.6 |
| 20260906124821 | 22 | 275 | 0.0 | 0.0 | 0.00 | 0.00 | 0.00 | 86 | 1016.6 |
| 20260906124317 | 21 | 268 | 0.0 | 0.0 | 0.00 | 0.00 | 0.00 | 89 | 1016.6 |
| 20260906123816 | 21 | 267 | 0.0 | 0.0 | 0.00 | 0.00 | 0.00 | 91 | 1016.6 |
| 20260906123311 | 21 | 276 | 0.0 | 0.0 | 0.00 | 0.00 | 0.00 | 91 | 1016.3 |
| 20260906122811 | 21 | 276 | 0.0 | 0.0 | 0.00 | 0.00 | 0.00 | 92 | 1016.3 |
| 20260906122301 | 21 | 276 | 0.0 | 0.0 | 0.00 | 0.00 | 0.00 | 92 | 1016.3 |
| 20260906121758 | 20 | 276 | 0.0 | 0.0 | 0.00 | 0.00 | 0.00 | 93 | 1016.3 |
| 20260906121253 | 20 | 276 | 0.0 | 0.0 | 0.00 | 0.00 | 0.00 | 92 | 1016.3 |
| 20260906120748 | 20 | 276 | 0.0 | 0.0 | 0.00 | 0.00 | 0.00 | 93 | 1016.3 |
| 20260906120245 | 20 | 276 | 0.0 | 0.0 | 0.00 | 0.00 | 0.00 | 93 | 1016.3 |
| 20260906115740 | 20 | 276 | 0.0 | 0.0 | 0.00 | 0.00 | 0.00 | 92 | 1016.3 |
| 20260906115235 | 21 | 276 | 0.0 | 0.0 | 0.00 | 0.00 | 0.00 | 92 | 1016.3 |
| 20260906114734 | 21 | 276 | 0.0 | 0.0 | 0.00 | 0.00 | 0.00 | 92 | 1015.9 |
| 20260906114230 | 21 | 276 | 0.0 | 0.0 | 0.00 | 0.00 | 0.00 | 92 | 1015.9 |
| 20260906113725 | 21 | 276 | 0.0 | 0.0 | 0.00 | 0.00 | 0.00 | 92 | 1015.9 |
| 20260906113224 | 21 | 276 | 0.0 | 0.0 | 0.00 | 0.00 | 0.00 | 93 | 1016.3 |
| 20260906112724 | 21 | 276 | 0.0 | 0.0 | 0.00 | 0.00 | 0.00 | 93 | 1015.9 |
| 20260906112221 | 20 | 276 | 0.0 | 0.0 | 0.00 | 0.00 | 0.00 | 93 | 1015.9 |
| 20260906111720 | 20 | 276 | 0.0 | 0.0 | 0.00 | 0.00 | 0.00 | 93 | 1015.6 |
| 20260906111215 | 21 | 276 | 0.0 | 0.0 | 0.00 | 0.00 | 0.00 | 92 | 1015.9 |
| 20260906110710 | 21 | 276 | 0.0 | 0.0 | 0.00 | 0.00 | 0.00 | 92 | 1015.9 |
| 20260906110206 | 21 | 276 | 0.0 | 0.0 | 0.00 | 0.00 | 0.00 | 92 | 1015.9 |
| 20260906105700 | 21 | 276 | 0.0 | 0.0 | 0.00 | 0.00 | 0.00 | 92 | 1015.9 |
| 20260906105156 | 21 | 276 | 0.0 | 0.0 | 0.00 | 0.00 | 0.00 | 91 | 1015.9 |
| 20260906104655 | 21 | 277 | 0.0 | 0.0 | 0.00 | 0.00 | 0.00 | 91 | 1015.9 |
| 20260906104149 | 21 | 277 | 0.0 | 0.0 | 0.00 | 0.00 | 0.00 | 91 | 1015.6 |
| 20260906103647 | 21 | 277 | 0.0 | 0.0 | 0.00 | 0.00 | 0.00 | 92 | 1015.9 |
| 20260906103143 | 21 | 277 | 0.0 | 0.0 | 0.00 | 0.00 | 0.00 | 92 | 1015.9 |
| 20260906102637 | 21 | 277 | 0.0 | 0.0 | 0.00 | 0.00 | 0.00 | 92 | 1015.6 |
| 20260906102131 | 21 | 276 | 0.0 | 0.0 | 0.00 | 0.00 | 0.00 | 92 | 1015.9 |
| 20260906101631 | 21 | 276 | 0.0 | 0.0 | 0.00 | 0.00 | 0.00 | 92 | 1015.6 |
| 20260906101131 | 21 | 276 | 0.0 | 0.0 | 0.00 | 0.00 | 0.00 | 91 | 1015.6 |
| 20260906100627 | 21 | 276 | 0.0 | 0.0 | 0.00 | 0.00 | 0.00 | 91 | 1015.9 |
| 20260906100122 | 21 | 276 | 0.0 | 0.0 | 0.00 | 0.00 | 0.00 | 91 | 1015.6 |
| 20260906095621 | 21 | 276 | 0.0 | 0.0 | 0.00 | 0.00 | 0.00 | 91 | 1015.6 |
| 20260906095117 | 21 | 276 | 0.0 | 0.0 | 0.00 | 0.00 | 0.00 | 91 | 1015.6 |
| 20260906094616 | 21 | 276 | 0.0 | 0.0 | 0.00 | 0.00 | 0.00 | 91 | 1015.6 |
| 20260906094112 | 21 | 276 | 0.0 | 0.0 | 0.00 | 0.00 | 0.00 | 91 | 1015.3 |
| 20260906093608 | 21 | 276 | 0.0 | 0.0 | 0.00 | 0.00 | 0.00 | 91 | 1015.3 |
| 20260906093102 | 21 | 276 | 0.0 | 0.0 | 0.00 | 0.00 | 0.00 | 91 | 1015.3 |
| 20260906092558 | 21 | 276 | 0.0 | 0.0 | 0.00 | 0.00 | 0.00 | 90 | 1015.3 |
| 20260906092053 | 21 | 276 | 0.0 | 0.0 | 0.00 | 0.00 | 0.00 | 90 | 1015.3 |
| 20260906091548 | 21 | 276 | 0.0 | 0.0 | 0.00 | 0.00 | 0.00 | 90 | 1015.3 |
| 20260906091045 | 21 | 276 | 0.0 | 0.0 | 0.00 | 0.00 | 0.00 | 90 | 1015.3 |
| 20260906090545 | 21 | 277 | 0.0 | 0.0 | 0.00 | 0.00 | 0.00 | 90 | 1015.3 |
| 20260906090040 | 21 | 276 | 0.0 | 0.0 | 0.00 | 0.00 | 0.00 | 90 | 1014.9 |
| 20260906085539 | 21 | 276 | 0.0 | 0.0 | 0.00 | 0.00 | 0.00 | 90 | 1014.9 |
| 20260906085038 | 21 | 276 | 0.0 | 0.0 | 0.00 | 0.00 | 0.00 | 90 | 1014.9 |
| 20260906084533 | 21 | 276 | 0.0 | 0.0 | 0.00 | 0.00 | 0.00 | 90 | 1014.9 |
| 20260906084032 | 21 | 276 | 0.0 | 0.0 | 0.00 | 0.00 | 0.00 | 90 | 1014.9 |
| 20260906083528 | 21 | 276 | 0.0 | 0.0 | 0.00 | 0.00 | 0.00 | 89 | 1014.9 |
| 20260906083028 | 21 | 276 | 0.0 | 0.0 | 0.00 | 0.00 | 0.00 | 89 | 1014.9 |
| 20260906082523 | 21 | 276 | 0.0 | 0.0 | 0.00 | 0.00 | 0.00 | 89 | 1014.6 |
| 20260906082019 | 21 | 276 | 0.0 | 0.0 | 0.00 | 0.00 | 0.00 | 89 | 1014.9 |
| 20260906081514 | 22 | 276 | 0.0 | 0.0 | 0.00 | 0.00 | 0.00 | 89 | 1014.6 |
| 20260906081009 | 22 | 276 | 0.0 | 0.0 | 0.00 | 0.00 | 0.00 | 89 | 1014.6 |
| 20260906080506 | 22 | 276 | 0.0 | 0.0 | 0.00 | 0.00 | 0.00 | 88 | 1014.6 |
| 20260906080001 | 22 | 276 | 0.0 | 0.0 | 0.00 | 0.00 | 0.00 | 88 | 1014.9 |
| 20260906075455 | 22 | 276 | 0.0 | 0.0 | 0.00 | 0.00 | 0.00 | 89 | 1014.9 |
| 20260906074950 | 22 | 276 | 0.0 | 0.0 | 0.00 | 0.00 | 0.00 | 89 | 1014.9 |
| 20260906074445 | 22 | 276 | 0.0 | 0.0 | 0.00 | 0.00 | 0.00 | 89 | 1014.9 |
| 20260906073943 | 22 | 276 | 0.0 | 0.0 | 0.00 | 0.00 | 0.00 | 88 | 1014.9 |
| 20260906073438 | 22 | 276 | 0.0 | 0.0 | 0.00 | 0.00 | 0.00 | 88 | 1014.9 |
| 20260906072935 | 22 | 276 | 0.0 | 0.0 | 0.00 | 0.00 | 0.00 | 88 | 1014.9 |
| 20260906072430 | 22 | 276 | 0.0 | 0.0 | 0.00 | 0.00 | 0.00 | 87 | 1014.9 |
| 20260906071926 | 22 | 276 | 0.0 | 0.0 | 0.00 | 0.00 | 0.00 | 87 | 1015.3 |
| 20260906071422 | 22 | 278 | 0.0 | 0.0 | 0.00 | 0.00 | 0.00 | 87 | 1015.3 |
| 20260906070917 | 22 | 278 | 0.0 | 0.0 | 0.00 | 0.00 | 0.00 | 87 | 1015.3 |
| 20260906070413 | 22 | 278 | 0.0 | 0.0 | 0.00 | 0.00 | 0.00 | 86 | 1015.3 |
| 20260906065908 | 22 | 278 | 0.0 | 0.0 | 0.00 | 0.00 | 0.00 | 86 | 1015.3 |
| 20260906065403 | 22 | 278 | 0.0 | 0.0 | 0.00 | 0.00 | 0.00 | 86 | 1015.3 |
| 20260906064858 | 22 | 278 | 0.0 | 0.0 | 0.00 | 0.00 | 0.00 | 86 | 1015.3 |
| 20260906064354 | 22 | 278 | 0.0 | 0.0 | 0.00 | 0.00 | 0.00 | 86 | 1015.3 |
| 20260906063854 | 22 | 278 | 0.0 | 0.0 | 0.00 | 0.00 | 0.00 | 85 | 1015.3 |
| 20260906063349 | 22 | 278 | 0.0 | 0.0 | 0.00 | 0.00 | 0.00 | 85 | 1015.6 |
| 20260906062844 | 22 | 278 | 0.0 | 0.0 | 0.00 | 0.00 | 0.00 | 85 | 1015.6 |
| 20260906062343 | 22 | 278 | 0.0 | 0.0 | 0.00 | 0.00 | 0.00 | 85 | 1015.6 |
| 20260906061839 | 22 | 278 | 0.0 | 0.0 | 0.00 | 0.00 | 0.00 | 85 | 1015.6 |
| 20260906061335 | 22 | 284 | 0.0 | 0.0 | 0.00 | 0.00 | 0.00 | 84 | 1015.6 |
| 20260906060830 | 23 | 286 | 0.0 | 0.0 | 0.00 | 0.00 | 0.00 | 84 | 1015.6 |
| 20260906060328 | 23 | 286 | 0.0 | 0.0 | 0.00 | 0.00 | 0.00 | 84 | 1015.6 |
| 20260906055823 | 23 | 286 | 0.0 | 0.0 | 0.00 | 0.00 | 0.00 | 84 | 1015.3 |
| 20260906055314 | 23 | 286 | 0.0 | 0.0 | 0.00 | 0.00 | 0.00 | 84 | 1015.6 |
| 20260906054809 | 23 | 286 | 0.0 | 0.0 | 0.00 | 0.00 | 0.00 | 84 | 1015.6 |
| 20260906054304 | 23 | 286 | 0.0 | 0.0 | 0.00 | 0.00 | 0.00 | 84 | 1015.6 |
| 20260906053801 | 23 | 286 | 0.0 | 0.0 | 0.00 | 0.00 | 0.00 | 83 | 1015.3 |
| 20260906053256 | 23 | 286 | 0.0 | 0.0 | 0.00 | 0.00 | 0.00 | 83 | 1015.6 |
| 20260906052751 | 23 | 286 | 0.0 | 0.0 | 0.00 | 0.00 | 0.00 | 83 | 1015.3 |
| 20260906052247 | 23 | 286 | 0.0 | 0.0 | 0.00 | 0.00 | 0.00 | 83 | 1015.3 |
| 20260906051743 | 23 | 286 | 0.0 | 0.0 | 0.00 | 0.00 | 0.00 | 83 | 1015.3 |
| 20260906051237 | 23 | 286 | 0.0 | 0.0 | 0.00 | 0.00 | 0.00 | 83 | 1015.3 |
| 20260906050733 | 23 | 286 | 0.0 | 0.0 | 0.00 | 0.00 | 0.00 | 82 | 1015.3 |
| 20260906050228 | 23 | 286 | 0.0 | 0.0 | 0.00 | 0.00 | 0.00 | 82 | 1015.3 |
| 20260906045726 | 23 | 286 | 0.0 | 0.0 | 0.00 | 0.00 | 0.00 | 81 | 1015.6 |
| 20260906045221 | 23 | 286 | 0.0 | 0.0 | 0.00 | 0.00 | 0.00 | 81 | 1015.3 |
| 20260906044717 | 23 | 286 | 0.0 | 0.0 | 0.00 | 0.00 | 0.00 | 81 | 1015.6 |
| 20260906044212 | 23 | 286 | 0.0 | 0.0 | 0.00 | 0.00 | 0.00 | 81 | 1015.3 |
| 20260906043708 | 23 | 286 | 0.0 | 0.0 | 0.00 | 0.00 | 0.00 | 80 | 1015.3 |
| 20260906043203 | 23 | 286 | 0.0 | 0.0 | 0.00 | 0.00 | 0.00 | 80 | 1015.6 |
| 20260906042703 | 23 | 286 | 0.0 | 0.0 | 0.00 | 0.00 | 0.00 | 80 | 1015.6 |
| 20260906042156 | 23 | 286 | 0.0 | 0.0 | 0.00 | 0.00 | 0.00 | 79 | 1015.6 |
| 20260906041652 | 24 | 291 | 0.0 | 0.0 | 0.00 | 0.00 | 0.00 | 79 | 1015.6 |
| 20260906041147 | 24 | 291 | 0.0 | 0.0 | 0.00 | 0.00 | 0.00 | 79 | 1015.6 |
| 20260906040643 | 24 | 291 | 0.0 | 0.0 | 0.00 | 0.00 | 0.00 | 79 | 1015.6 |
| 20260906040138 | 24 | 291 | 0.0 | 0.0 | 0.00 | 0.00 | 0.00 | 78 | 1015.6 |
| 20260906035633 | 24 | 291 | 0.0 | 0.0 | 0.00 | 0.00 | 0.00 | 78 | 1015.3 |
| 20260906035129 | 24 | 291 | 0.0 | 0.0 | 0.00 | 0.00 | 0.00 | 78 | 1015.3 |
| 20260906034629 | 24 | 291 | 0.0 | 0.0 | 0.00 | 0.00 | 0.00 | 78 | 1015.3 |
| 20260906034124 | 24 | 291 | 0.0 | 0.0 | 0.00 | 0.00 | 0.00 | 77 | 1015.3 |
| 20260906033620 | 25 | 291 | 0.0 | 0.0 | 0.00 | 0.00 | 0.00 | 76 | 1015.3 |
| 20260906033114 | 25 | 291 | 0.0 | 0.0 | 0.00 | 0.00 | 0.00 | 76 | 1015.3 |
| 20260906032611 | 25 | 260 | 3.2 | 3.2 | 0.00 | 0.00 | 0.00 | 76 | 1015.3 |
| 20260906032111 | 25 | 293 | 0.0 | 0.0 | 0.00 | 0.00 | 0.00 | 75 | 1015.3 |
| 20260906031606 | 25 | 293 | 0.0 | 0.0 | 0.00 | 0.00 | 0.00 | 75 | 1015.3 |
| 20260906031102 | 25 | 293 | 0.0 | 0.0 | 0.00 | 0.00 | 0.00 | 74 | 1015.3 |
| 20260906030601 | 25 | 293 | 0.0 | 0.0 | 0.00 | 0.00 | 0.00 | 74 | 1015.3 |
| 20260906030055 | 25 | 293 | 0.0 | 0.0 | 0.00 | 0.00 | 0.00 | 73 | 1014.9 |
| 20260906025550 | 25 | 293 | 0.0 | 0.0 | 0.00 | 0.00 | 0.00 | 73 | 1014.9 |
| 20260906025048 | 25 | 293 | 0.0 | 0.0 | 0.00 | 0.00 | 0.00 | 72 | 1014.9 |
| 20260906024543 | 26 | 293 | 0.0 | 0.0 | 0.00 | 0.00 | 0.00 | 72 | 1014.9 |
| 20260906024043 | 26 | 293 | 0.0 | 0.0 | 0.00 | 0.00 | 0.00 | 71 | 1014.6 |
| 20260906023539 | 26 | 293 | 0.0 | 0.0 | 0.00 | 0.00 | 0.00 | 70 | 1014.6 |
| 20260906023034 | 26 | 293 | 0.0 | 0.0 | 0.00 | 0.00 | 0.00 | 70 | 1014.6 |
| 20260906022530 | 26 | 293 | 0.0 | 0.0 | 0.00 | 0.00 | 0.00 | 69 | 1014.6 |
| 20260906022025 | 26 | 293 | 0.0 | 0.0 | 0.00 | 0.00 | 0.00 | 69 | 1014.6 |
| 20260906021521 | 26 | 293 | 0.0 | 0.0 | 0.00 | 0.00 | 0.00 | 68 | 1014.6 |
| 20260906021020 | 27 | 293 | 0.0 | 0.0 | 0.00 | 0.00 | 0.00 | 67 | 1014.6 |
| 20260906020519 | 27 | 293 | 0.0 | 0.0 | 0.00 | 0.00 | 0.00 | 66 | 1014.6 |
| 20260906020014 | 27 | 293 | 0.0 | 0.0 | 0.00 | 0.00 | 0.00 | 65 | 1014.2 |
| 20260906015512 | 27 | 293 | 0.0 | 0.0 | 0.00 | 0.00 | 0.00 | 65 | 1014.2 |
| 20260906015007 | 27 | 293 | 0.0 | 0.0 | 0.00 | 0.00 | 0.00 | 64 | 1014.2 |
| 20260906014502 | 28 | 310 | 0.0 | 0.0 | 0.00 | 0.00 | 0.00 | 63 | 1013.8 |
| 20260906013957 | 28 | 310 | 0.0 | 0.0 | 0.00 | 0.00 | 0.00 | 61 | 1014.2 |
| 20260906013452 | 28 | 311 | 0.0 | 0.0 | 0.00 | 0.00 | 0.00 | 61 | 1013.8 |
| 20260906012948 | 28 | 310 | 1.6 | 1.6 | 0.00 | 0.00 | 0.00 | 60 | 1014.2 |
| 20260906012443 | 28 | 310 | 1.6 | 1.6 | 0.00 | 0.00 | 0.00 | 59 | 1014.2 |
| 20260906011942 | 29 | 325 | 0.0 | 0.0 | 0.00 | 0.00 | 0.00 | 58 | 1013.8 |
| 20260906011438 | 29 | 292 | 0.0 | 0.0 | 0.00 | 0.00 | 0.00 | 57 | 1013.8 |
| 20260906010932 | 29 | 291 | 0.0 | 0.0 | 0.00 | 0.00 | 0.00 | 56 | 1013.8 |
| 20260906010428 | 30 | 291 | 0.0 | 0.0 | 0.00 | 0.00 | 0.00 | 56 | 1013.5 |
| 20260906005925 | 30 | 291 | 0.0 | 0.0 | 0.00 | 0.00 | 0.00 | 55 | 1013.8 |
| 20260906005424 | 30 | 290 | 0.0 | 0.0 | 0.00 | 0.00 | 0.00 | 54 | 1013.8 |
| 20260906004922 | 30 | 324 | 0.0 | 0.0 | 0.00 | 0.00 | 0.00 | 53 | 1013.8 |
| 20260906004416 | 31 | 314 | 0.0 | 0.0 | 0.00 | 0.00 | 0.00 | 52 | 1013.8 |
| 20260906003912 | 31 | 291 | 1.6 | 1.6 | 0.00 | 0.00 | 0.00 | 51 | 1013.8 |
| 20260906003407 | 31 | 291 | 1.6 | 1.6 | 0.00 | 0.00 | 0.00 | 50 | 1013.8 |
| 20260906002902 | 31 | 308 | 0.0 | 0.0 | 0.00 | 0.00 | 0.00 | 49 | 1013.5 |
| 20260906002401 | 32 | 283 | 1.6 | 1.6 | 0.00 | 0.00 | 0.00 | 48 | 1013.8 |
| 20260906001852 | 32 | 302 | 3.2 | 3.2 | 0.00 | 0.00 | 0.00 | 47 | 1013.8 |
| 20260906001348 | 32 | 173 | 3.2 | 4.8 | 0.00 | 0.00 | 0.00 | 45 | 1013.8 |
| 20260906000843 | 33 | 170 | 6.4 | 8.0 | 0.00 | 0.00 | 0.00 | 44 | 1013.8 |
| 20260906000343 | 33 | 208 | 8.0 | 9.7 | 0.00 | 0.00 | 0.00 | 43 | 1013.8 |
| 20260905235842 | 35 | 99 | 3.2 | 3.2 | 0.00 | 0.00 | 0.00 | 40 | 1013.8 |
| 20260905235337 | 35 | 199 | 3.2 | 3.2 | 0.00 | 0.00 | 0.00 | 40 | 1013.5 |
| 20260905234833 | 36 | 268 | 4.8 | 4.8 | 0.00 | 0.00 | 0.00 | 38 | 1013.5 |
| 20260905234328 | 37 | 279 | 3.2 | 3.2 | 0.00 | 0.00 | 0.00 | 36 | 1013.5 |
| 20260905233823 | 37 | 331 | 4.8 | 4.8 | 0.00 | 0.00 | 0.00 | 34 | 1013.1 |
| 20260905233318 | 37 | 332 | 3.2 | 3.2 | 0.00 | 0.00 | 0.00 | 34 | 1013.1 |
| 20260905232817 | 37 | 332 | 4.8 | 4.8 | 0.00 | 0.00 | 0.00 | 34 | 1013.1 |
| 20260905232313 | 37 | 118 | 6.4 | 8.0 | 0.00 | 0.00 | 0.00 | 33 | 1013.1 |
| 20260905231808 | 37 | 338 | 1.6 | 1.6 | 0.00 | 0.00 | 0.00 | 33 | 1013.1 |
| 20260905231303 | 37 | 325 | 0.0 | 0.0 | 0.00 | 0.00 | 0.00 | 32 | 1013.1 |
| 20260905230759 | 37 | 326 | 3.2 | 3.2 | 0.00 | 0.00 | 0.00 | 32 | 1013.1 |
| 20260905230258 | 37 | 335 | 1.6 | 0.0 | 0.00 | 0.00 | 0.00 | 33 | 1012.8 |
| 20260905225757 | 37 | 346 | 0.0 | 0.0 | 0.00 | 0.00 | 0.00 | 32 | 1012.8 |
| 20260905225252 | 37 | 315 | 3.2 | 3.2 | 0.00 | 0.00 | 0.00 | 33 | 1013.1 |
| 20260905224751 | 37 | 207 | 4.8 | 8.0 | 0.00 | 0.00 | 0.00 | 33 | 1012.8 |
| 20260905224247 | 36 | 354 | 1.6 | 3.2 | 0.00 | 0.00 | 0.00 | 34 | 1012.8 |
| 20260905223742 | 36 | 325 | 0.0 | 0.0 | 0.00 | 0.00 | 0.00 | 35 | 1012.8 |
| 20260905223240 | 36 | 326 | 1.6 | 1.6 | 0.00 | 0.00 | 0.00 | 35 | 1012.8 |
| 20260905222736 | 36 | 281 | 0.0 | 0.0 | 0.00 | 0.00 | 0.00 | 39 | 1013.1 |
| 20260905222234 | 35 | 294 | 1.6 | 1.6 | 0.00 | 0.00 | 0.00 | 36 | 1012.8 |
| 20260905221730 | 35 | 293 | 1.6 | 1.6 | 0.00 | 0.00 | 0.00 | 40 | 1013.1 |
| 20260905221227 | 36 | 300 | 1.6 | 1.6 | 0.00 | 0.00 | 0.00 | 40 | 1013.1 |
| 20260905220722 | 36 | 308 | 1.6 | 1.6 | 0.00 | 0.00 | 0.00 | 39 | 1013.1 |
| 20260905220218 | 36 | 314 | 0.0 | 0.0 | 0.00 | 0.00 | 0.00 | 37 | 1013.1 |
| 20260905215717 | 36 | 314 | 0.0 | 0.0 | 0.00 | 0.00 | 0.00 | 37 | 1013.1 |
| 20260905215213 | 37 | 314 | 1.6 | 1.6 | 0.00 | 0.00 | 0.00 | 35 | 1013.1 |
| 20260905214709 | 37 | 315 | 0.0 | 0.0 | 0.00 | 0.00 | 0.00 | 34 | 1013.5 |
| 20260905214204 | 37 | 337 | 1.6 | 1.6 | 0.00 | 0.00 | 0.00 | 34 | 1013.1 |
| 20260905213659 | 37 | 336 | 1.6 | 3.2 | 0.00 | 0.00 | 0.00 | 33 | 1013.1 |
| 20260905213155 | 37 | 330 | 1.6 | 1.6 | 0.00 | 0.00 | 0.00 | 33 | 1013.5 |
| 20260905212650 | 38 | 316 | 1.6 | 1.6 | 0.00 | 0.00 | 0.00 | 32 | 1013.5 |
| 20260905212149 | 38 | 325 | 1.6 | 1.6 | 0.00 | 0.00 | 0.00 | 31 | 1013.5 |
| 20260905211644 | 39 | 328 | 1.6 | 1.6 | 0.00 | 0.00 | 0.00 | 31 | 1013.5 |
| 20260905211140 | 40 | 331 | 1.6 | 1.6 | 0.00 | 0.00 | 0.00 | 30 | 1013.5 |
| 20260905210636 | 40 | 334 | 0.0 | 0.0 | 0.00 | 0.00 | 0.00 | 30 | 1013.1 |
| 20260905210131 | 40 | 352 | 3.2 | 4.8 | 0.00 | 0.00 | 0.00 | 29 | 1013.5 |
| 20260905205630 | 39 | 327 | 1.6 | 1.6 | 0.00 | 0.00 | 0.00 | 29 | 1013.5 |
| 20260905205130 | 39 | 55 | 4.8 | 4.8 | 0.00 | 0.00 | 0.00 | 29 | 1013.5 |
| 20260905204624 | 39 | 349 | 3.2 | 3.2 | 0.00 | 0.00 | 0.00 | 30 | 1014.2 |
| 20260905204119 | 39 | 76 | 3.2 | 3.2 | 0.00 | 0.00 | 0.00 | 30 | 1013.8 |
| 20260905203614 | 39 | 337 | 3.2 | 3.2 | 0.00 | 0.00 | 0.00 | 30 | 1014.2 |
| 20260905203108 | 39 | 335 | 4.8 | 4.8 | 0.00 | 0.00 | 0.00 | 31 | 1014.2 |
| 20260905202604 | 40 | 331 | 3.2 | 3.2 | 0.00 | 0.00 | 0.00 | 30 | 1014.2 |
| 20260905202059 | 39 | 322 | 3.2 | 3.2 | 0.00 | 0.00 | 0.00 | 30 | 1014.2 |
| 20260905201555 | 39 | 291 | 1.6 | 1.6 | 0.00 | 0.00 | 0.00 | 30 | 1014.2 |
| 20260905201054 | 39 | 172 | 3.2 | 4.8 | 0.00 | 0.00 | 0.00 | 29 | 1014.2 |
| 20260905200550 | 39 | 351 | 4.8 | 4.8 | 0.00 | 0.00 | 0.00 | 30 | 1013.8 |
| 20260905200050 | 39 | 356 | 1.6 | 1.6 | 0.00 | 0.00 | 0.00 | 30 | 1014.2 |
| 20260905195543 | 38 | 341 | 1.6 | 1.6 | 0.00 | 0.00 | 0.00 | 31 | 1014.6 |
| 20260905195039 | 38 | 342 | 1.6 | 1.6 | 0.00 | 0.00 | 0.00 | 32 | 1014.2 |
| 20260905194539 | 39 | 7 | 1.6 | 1.6 | 0.00 | 0.00 | 0.00 | 31 | 1014.6 |
| 20260905194038 | 40 | 175 | 1.6 | 3.2 | 0.00 | 0.00 | 0.00 | 30 | 1014.2 |
| 20260905193533 | 40 | 203 | 8.0 | 8.0 | 0.00 | 0.00 | 0.00 | 29 | 1014.6 |
| 20260905193028 | 40 | 349 | 8.0 | 11.3 | 0.00 | 0.00 | 0.00 | 29 | 1014.6 |
| 20260905192523 | 39 | 343 | 1.6 | 1.6 | 0.00 | 0.00 | 0.00 | 30 | 1014.9 |
| 20260905192020 | 40 | 343 | 1.6 | 1.6 | 0.00 | 0.00 | 0.00 | 31 | 1014.9 |
| 20260905191518 | 39 | 130 | 3.2 | 3.2 | 0.00 | 0.00 | 0.00 | 30 | 1014.9 |
| 20260905191018 | 38 | 341 | 0.0 | 0.0 | 0.00 | 0.00 | 0.00 | 32 | 1014.9 |
| 20260905190515 | 37 | 264 | 3.2 | 3.2 | 0.00 | 0.00 | 0.00 | 34 | 1014.9 |
| 20260905190010 | 38 | 144 | 4.8 | 8.0 | 0.00 | 0.00 | 0.00 | 33 | 1014.9 |
| 20260905185505 | 38 | 344 | 3.2 | 3.2 | 0.00 | 0.00 | 0.00 | 33 | 1015.3 |
| 20260905185003 | 38 | 331 | 4.8 | 4.8 | 0.00 | 0.00 | 0.00 | 34 | 1015.3 |
| 20260905184458 | 38 | 114 | 6.4 | 4.8 | 0.00 | 0.00 | 0.00 | 32 | 1015.3 |
| 20260905183957 | 39 | 344 | 1.6 | 3.2 | 0.00 | 0.00 | 0.00 | 32 | 1015.3 |
| 20260905183451 | 40 | 175 | 4.8 | 4.8 | 0.00 | 0.00 | 0.00 | 32 | 1015.6 |
| 20260905182946 | 38 | 295 | 0.0 | 0.0 | 0.00 | 0.00 | 0.00 | 32 | 1015.6 |
| 20260905182445 | 38 | 78 | 6.4 | 4.8 | 0.00 | 0.00 | 0.00 | 33 | 1015.9 |
| 20260905181940 | 39 | 315 | 1.6 | 1.6 | 0.00 | 0.00 | 0.00 | 32 | 1015.9 |
| 20260905181435 | 39 | 323 | 1.6 | 1.6 | 0.00 | 0.00 | 0.00 | 33 | 1015.9 |
| 20260905180934 | 38 | 337 | 1.6 | 1.6 | 0.00 | 0.00 | 0.00 | 33 | 1015.9 |
| 20260905180429 | 38 | 353 | 3.2 | 3.2 | 0.00 | 0.00 | 0.00 | 33 | 1015.9 |
| 20260905175924 | 37 | 304 | 0.0 | 0.0 | 0.00 | 0.00 | 0.00 | 35 | 1015.9 |
| 20260905175424 | 37 | 327 | 1.6 | 1.6 | 0.00 | 0.00 | 0.00 | 36 | 1016.6 |
| 20260905174919 | 37 | 326 | 0.0 | 0.0 | 0.00 | 0.00 | 0.00 | 37 | 1016.3 |
| 20260905174415 | 37 | 325 | 3.2 | 3.2 | 0.00 | 0.00 | 0.00 | 37 | 1016.6 |
| 20260905173910 | 38 | 20 | 6.4 | 8.0 | 0.00 | 0.00 | 0.00 | 34 | 1016.3 |
| 20260905173406 | 37 | 344 | 4.8 | 8.0 | 0.00 | 0.00 | 0.00 | 35 | 1016.3 |
| 20260905172901 | 38 | 345 | 6.4 | 11.3 | 0.00 | 0.00 | 0.00 | 36 | 1016.6 |
| 20260905172359 | 38 | 19 | 1.6 | 1.6 | 0.00 | 0.00 | 0.00 | 35 | 1016.6 |
| 20260905171855 | 38 | 351 | 4.8 | 4.8 | 0.00 | 0.00 | 0.00 | 35 | 1016.6 |
| 20260905171351 | 37 | 347 | 1.6 | 1.6 | 0.00 | 0.00 | 0.00 | 36 | 1016.6 |
| 20260905170848 | 37 | 322 | 6.4 | 4.8 | 0.00 | 0.00 | 0.00 | 35 | 1016.6 |
| 20260905170344 | 37 | 322 | 1.6 | 1.6 | 0.00 | 0.00 | 0.00 | 37 | 1017.0 |
| 20260905165843 | 37 | 345 | 3.2 | 4.8 | 0.00 | 0.00 | 0.00 | 37 | 1017.0 |
| 20260905165338 | 37 | 342 | 1.6 | 3.2 | 0.00 | 0.00 | 0.00 | 37 | 1017.3 |